• în România
  • Lista ţărilor
  • Pe 7 zile
  • Temperatura apei
  • Hartă satelitară
  • Meteo pe hartă
  • Widget-uri
  • user-avatar
    Intrare

    Meteo pe oră la Solden

    Astăzi, 22 Noiembrie, Miercuri

    Timp Temperatura Precipitaţii Vânt Presiune Umiditate
    00:00 -3°C° 0 mm 1 m/s 580 mmHg 78%
    01:00 -5°C° 0 mm 2 m/s 580 mmHg 75%
    02:00 -3°C° 0 mm 1 m/s 580 mmHg 74%
    03:00 -3°C° 0 mm 1 m/s 580 mmHg 73%
    04:00 -4°C° 0 mm 1 m/s 579 mmHg 71%
    05:00 -4°C° 0 mm 1 m/s 579 mmHg 70%
    06:00 -4°C° 0 mm 1 m/s 579 mmHg 68%
    07:00 -5°C° 0 mm 2 m/s 580 mmHg 68%
    08:00 -3°C° 0 mm 2 m/s 580 mmHg 67%
    09:00 0°C° 0 mm 1 m/s 581 mmHg 67%
    10:00 +2°C° 0 mm 1 m/s 582 mmHg 66%
    11:00 +2°C° 0 mm 1 m/s 582 mmHg 69%
    12:00 +3°C° 0 mm 1 m/s 582 mmHg 71%
    13:00 +3°C° 0 mm 2 m/s 582 mmHg 71%
    14:00 +1°C° 0 mm 2 m/s 582 mmHg 73%
    15:00 -1°C° 0 mm 2 m/s 581 mmHg 75%
    16:00 0°C° 0 mm 1 m/s 581 mmHg 77%
    17:00 -1°C° 0 mm 1 m/s 580 mmHg 78%
    18:00 -4°C° 0 mm 2 m/s 580 mmHg 79%
    19:00 -5°C° 0 mm 2 m/s 579 mmHg 81%
    20:00 -5°C° 0 mm 2 m/s 579 mmHg 81%
    21:00 -6°C° 0 mm 2 m/s 579 mmHg 81%
    22:00 -6°C° 0 mm 2 m/s 579 mmHg 81%
    23:00 -6°C° 0 mm 2 m/s 579 mmHg 81%

    Mâine, 23 Noiembrie, Joi

    Timp Temperatura Precipitaţii Vânt Presiune Umiditate
    00:00 -6°C° 0 mm 2 m/s 579 mmHg 81%
    01:00 -6°C° 0 mm 2 m/s 579 mmHg 81%
    02:00 -6°C° 0 mm 2 m/s 579 mmHg 81%
    03:00 -6°C° 0 mm 2 m/s 579 mmHg 80%
    04:00 -6°C° 0 mm 2 m/s 578 mmHg 80%
    05:00 -6°C° 0 mm 2 m/s 578 mmHg 80%
    06:00 -7°C° 0 mm 2 m/s 578 mmHg 80%
    07:00 -7°C° 0 mm 2 m/s 578 mmHg 80%
    08:00 -5°C° 0 mm 2 m/s 579 mmHg 78%
    09:00 -4°C° 0 mm 2 m/s 580 mmHg 75%
    10:00 0°C° 0 mm 1 m/s 581 mmHg 73%
    11:00 +1°C° 0 mm 1 m/s 581 mmHg 73%
    12:00 +2°C° 0 mm 1 m/s 582 mmHg 74%
    13:00 +3°C° 0 mm 1 m/s 582 mmHg 74%
    14:00 +1°C° 0 mm 1 m/s 581 mmHg 76%
    15:00 0°C° 0 mm 1 m/s 581 mmHg 78%
    16:00 -1°C° 0 mm 1 m/s 580 mmHg 80%
    17:00 -2°C° 0 mm 1 m/s 580 mmHg 80%
    18:00 -3°C° 0 mm 1 m/s 580 mmHg 80%
    19:00 -3°C° 0 mm 1 m/s 580 mmHg 80%
    20:00 -4°C° 0 mm 1 m/s 580 mmHg 78%
    21:00 -4°C° 0 mm 1 m/s 580 mmHg 77%
    22:00 -4°C° 0 mm 1 m/s 580 mmHg 75%
    23:00 -4°C° 0 mm 1 m/s 580 mmHg 74%

    Poimâine, 24 Noiembrie, Vineri

    Timp Temperatura Precipitaţii Vânt Presiune Umiditate
    00:00 -4°C° 0 mm 1 m/s 581 mmHg 73%
    01:00 -4°C° 0 mm 1 m/s 581 mmHg 72%
    02:00 -6°C° 0 mm 1 m/s 581 mmHg 73%
    03:00 -6°C° 0 mm 1 m/s 580 mmHg 73%
    04:00 -6°C° 0 mm 1 m/s 580 mmHg 74%
    05:00 -6°C° 0 mm 1 m/s 580 mmHg 75%
    06:00 -7°C° 0 mm 2 m/s 580 mmHg 76%
    07:00 -7°C° 0 mm 2 m/s 580 mmHg 77%
    08:00 -5°C° 0 mm 2 m/s 581 mmHg 75%
    09:00 -2°C° 0 mm 1 m/s 582 mmHg 72%
    10:00 0°C° 0 mm 1 m/s 583 mmHg 70%
    11:00 +1°C° 0 mm 1 m/s 583 mmHg 70%
    12:00 +1°C° 0 mm 2 m/s 583 mmHg 70%
    13:00 +1°C° 0 mm 2 m/s 583 mmHg 70%
    14:00 -1°C° 0 mm 2 m/s 582 mmHg 74%
    15:00 0°C° 0 mm 1 m/s 582 mmHg 78%
    16:00 -1°C° 0 mm 1 m/s 581 mmHg 81%
    17:00 -2°C° 0 mm 1 m/s 581 mmHg 83%
    18:00 -2°C° 0 mm 1 m/s 581 mmHg 84%
    19:00 -3°C° 0 mm 1 m/s 581 mmHg 85%
    20:00 -3°C° 0 mm 1 m/s 581 mmHg 86%
    21:00 -3°C° 0 mm 1 m/s 581 mmHg 86%
    22:00 -3°C° 0 mm 1 m/s 581 mmHg 87%
    23:00 -5°C° 0 mm 2 m/s 581 mmHg 88%

    25 Noiembrie, Sâmbătă

    Timp Temperatura Precipitaţii Vânt Presiune Umiditate
    00:00 -5°C° 0 mm 2 m/s 580 mmHg 90%
    01:00 -5°C° 0 mm 2 m/s 580 mmHg 91%
    02:00 -5°C° 0 mm 2 m/s 580 mmHg 92%
    03:00 -5°C° 0 mm 2 m/s 579 mmHg 93%
    04:00 -5°C° 0 mm 2 m/s 579 mmHg 93%
    05:00 -5°C° 0 mm 2 m/s 578 mmHg 93%
    06:00 -5°C° 0 mm 2 m/s 578 mmHg 93%
    07:00 -5°C° 0 mm 2 m/s 578 mmHg 93%
    08:00 -4°C° 0,1 mm 2 m/s 578 mmHg 92%
    09:00 -3°C° 0,1 mm 2 m/s 578 mmHg 90%
    10:00 -2°C° 0,1 mm 2 m/s 578 mmHg 88%
    11:00 -2°C° 0,4 mm 2 m/s 578 mmHg 88%
    12:00 -2°C° 0,4 mm 2 m/s 578 mmHg 89%
    13:00 -1°C° 0,4 mm 2 m/s 578 mmHg 89%
    14:00 -1°C° 0,5 mm 2 m/s 578 mmHg 90%
    15:00 0°C° 0,5 mm 1 m/s 578 mmHg 92%
    16:00 0°C° 0,5 mm 1 m/s 578 mmHg 93%
    17:00 -1°C° 0,5 mm 1 m/s 578 mmHg 94%
    18:00 -1°C° 0,5 mm 1 m/s 578 mmHg 94%
    19:00 -4°C° 0,5 mm 2 m/s 578 mmHg 95%
    20:00 -5°C° 0,2 mm 2 m/s 578 mmHg 94%
    21:00 -5°C° 0,2 mm 2 m/s 579 mmHg 93%
    22:00 -6°C° 0,2 mm 2 m/s 579 mmHg 92%
    23:00 -8°C° 0,1 mm 3 m/s 579 mmHg 90%

    26 Noiembrie, Duminică

    Timp Temperatura Precipitaţii Vânt Presiune Umiditate
    00:00 -8°C° 0,1 mm 3 m/s 578 mmHg 87%
    01:00 -9°C° 0,1 mm 3 m/s 578 mmHg 85%
    02:00 -10°C° 0,1 mm 3 m/s 578 mmHg 84%
    03:00 -12°C° 0,1 mm 3 m/s 578 mmHg 84%
    04:00 -13°C° 0,1 mm 3 m/s 577 mmHg 83%
    05:00 -13°C° 0 mm 3 m/s 577 mmHg 82%
    06:00 -14°C° 0 mm 3 m/s 577 mmHg 81%
    07:00 -15°C° 0 mm 3 m/s 577 mmHg 80%
    08:00 -14°C° 0 mm 3 m/s 577 mmHg 76%
    09:00 -14°C° 0 mm 3 m/s 578 mmHg 72%
    10:00 -14°C° 0 mm 4 m/s 578 mmHg 69%
    11:00 -12°C° 0,1 mm 4 m/s 579 mmHg 68%
    12:00 -12°C° 0,1 mm 4 m/s 579 mmHg 66%
    13:00 -12°C° 0,1 mm 4 m/s 579 mmHg 65%
    14:00 -12°C° 0 mm 3 m/s 579 mmHg 67%
    15:00 -12°C° 0 mm 3 m/s 579 mmHg 68%
    16:00 -13°C° 0 mm 3 m/s 579 mmHg 69%
    17:00 -14°C° 0 mm 3 m/s 579 mmHg 71%
    18:00 -15°C° 0 mm 3 m/s 579 mmHg 74%
    19:00 -15°C° 0 mm 2 m/s 579 mmHg 77%
    20:00 -15°C° 0 mm 2 m/s 579 mmHg 76%
    21:00 -15°C° 0 mm 2 m/s 579 mmHg 76%
    22:00 -15°C° 0 mm 2 m/s 579 mmHg 75%
    23:00 -15°C° 0 mm 2 m/s 579 mmHg 75%

    27 Noiembrie, Luni

    Timp Temperatura Precipitaţii Vânt Presiune Umiditate
    00:00 -15°C° 0 mm 2 m/s 579 mmHg 75%
    01:00 -16°C° 0 mm 2 m/s 579 mmHg 75%
    02:00 -15°C° 0 mm 2 m/s 579 mmHg 74%
    03:00 -15°C° 0 mm 2 m/s 579 mmHg 74%
    04:00 -15°C° 0 mm 2 m/s 579 mmHg 74%
    05:00 -15°C° 0,1 mm 2 m/s 579 mmHg 74%
    06:00 -15°C° 0,1 mm 2 m/s 579 mmHg 75%
    07:00 -15°C° 0,1 mm 2 m/s 580 mmHg 75%
    08:00 -13°C° 0 mm 2 m/s 580 mmHg 73%
    09:00 -12°C° 0 mm 2 m/s 581 mmHg 70%
    10:00 -10°C° 0 mm 2 m/s 582 mmHg 68%
    11:00 -9°C° 0 mm 2 m/s 582 mmHg 65%
    12:00 -8°C° 0 mm 2 m/s 582 mmHg 62%
    13:00 -8°C° 0 mm 2 m/s 582 mmHg 59%
    14:00 -9°C° 0 mm 2 m/s 581 mmHg 62%
    15:00 -10°C° 0 mm 2 m/s 581 mmHg 66%
    16:00 -10°C° 0 mm 1 m/s 580 mmHg 70%
    17:00 -13°C° 0 mm 2 m/s 580 mmHg 72%
    18:00 -14°C° 0 mm 2 m/s 580 mmHg 74%
    19:00 -15°C° 0 mm 2 m/s 579 mmHg 77%
    20:00 -14°C° 0 mm 2 m/s 579 mmHg 75%
    21:00 -14°C° 0 mm 2 m/s 579 mmHg 73%
    22:00 -14°C° 0 mm 2 m/s 579 mmHg 72%
    23:00 -13°C° 0 mm 2 m/s 579 mmHg 71%
    Arată mai mult